Regional Weather Roundup
Issued by NWS

Home | Current Version | Previous Version | Graphics & Text | Print | Product List | Glossary On
Versions: 1 2 3 4 5 6 7 8 9 10 11 12 13 14 15 16 17 18 19 20 21 22 23 24 25 26 27
000
ASUS45 KPSR 181210
RWRAZ

ARIZONA HOURLY REGIONAL WEATHER ROUNDUP
NATIONAL WEATHER SERVICE PHOENIX AZ
500 AM MST SUN FEB 18 2018

NOTE: FAIR INDICATES FEW OR NO CLOUDS BELOW 12,000 FEET WITH NO
SIGNIFICANT WEATHER AND/OR OBSTRUCTIONS TO VISIBILITY.

AZZ001>003-036-181300-
NORTHWEST ARIZONA

CITY           SKY/WX    TMP DP  RH WIND       PRES   REMARKS
BULLHEAD CITY  CLEAR     48  25  40 E7        29.93F
KINGMAN        CLEAR     39  26  59 SE10      29.96F WCI  32
6HR MIN TEMP:  35; 6HR MAX TEMP:  47;

$$

AZZ004>008-015-016-018-181300-
NORTH CENTRAL ARIZONA

CITY           SKY/WX    TMP DP  RH WIND       PRES   REMARKS
GRAND CANYON   CLEAR     25  24  96 SW5       30.00F WCI  19
6HR MIN TEMP:  21; 6HR MAX TEMP:  25;

WILLIAMS       PTCLDY    37  30  75 SE13      29.98F WCI  29
PRESCOTT       PTCLDY    33  27  78 CALM      30.01F
6HR MIN TEMP:  32; 6HR MAX TEMP:  40;

FLAGSTAFF      MOCLDY    32  30  92 W5        30.03F WCI  27
6HR MIN TEMP:  26; 6HR MAX TEMP:  33;

PAYSON         CLOUDY    39  34  81 CALM      30.04F
PAGE           CLEAR     36  23  59 W5        29.93S WCI  32
6HR MIN TEMP:  35; 6HR MAX TEMP:  43;

$$

AZZ009>014-017-181300-
NORTHEAST ARIZONA

CITY           SKY/WX    TMP DP  RH WIND       PRES   REMARKS
WINSLOW        CLOUDY    33  25  72 SE5       29.99F WCI  29
6HR MIN TEMP:  32; 6HR MAX TEMP:  39;

SAINT JOHNS    MOCLDY    30  28  92 S7        30.03F WCI  23
6HR MIN TEMP:  30; 6HR MAX TEMP:  39;

WINDOW ROCK    MOCLDY    41  35  79 S12       30.02F
6HR MIN TEMP:  22; 6HR MAX TEMP:  41;

SHOW LOW       MOCLDY    45  39  81 S15       30.05S
$$

AZZ540-542>544-546-548-181300-
GREATER PHOENIX AREA

CITY           SKY/WX    TMP DP  RH WIND       PRES   REMARKS
PHOENIX        PTCLDY    53  47  79 E8        29.95F
6HR MIN TEMP:  53; 6HR MAX TEMP:  63;

BUCKEYE        PTCLDY    45  45 100 NE3       29.97F
LUKE AFB       CLEAR     48  47  99 N3        29.95F
6HR MIN TEMP:  48; 6HR MAX TEMP:  54;

DEER VALLEY    CLEAR     48  45  89 CALM      29.96F
6HR MIN TEMP:  47; 6HR MAX TEMP:  56;

SCOTTSDALE     CLEAR     52  45  77 CALM      29.97F
6HR MIN TEMP:  51; 6HR MAX TEMP:  56;

MESA-GATEWAY   PTCLDY    48  46  93 E9        29.98F
$$

AZZ539-553-181300-
SOUTHWEST MARICOPA COUNTY AND PINAL COUNTY

CITY           SKY/WX    TMP DP  RH WIND       PRES   REMARKS
CASA GRANDE      N/A     51  47  86 CALM      29.98F
6HR MIN TEMP:  48; 6HR MAX TEMP:  56;

GILA BEND      FAIR      49  46  90 SE7       29.95F
6HR MIN TEMP:  49; 6HR MAX TEMP:  55;

$$

AZZ503-504-507>509-181300-
SOUTHEAST ARIZONA

CITY           SKY/WX    TMP DP  RH WIND       PRES   REMARKS
TUCSON         CLEAR     53  49  86 SE8       30.01F
6HR MIN TEMP:  52; 6HR MAX TEMP:  58;

DAVIS-MONTHAN  CLEAR     50  50 100 CALM      30.00F
6HR MIN TEMP:  50; 6HR MAX TEMP:  54;

NOGALES        PTCLDY    48  46  93 NE5       30.03F
6HR MIN TEMP:  47; 6HR MAX TEMP:  50;

SIERRA VISTA   CLOUDY    48  46  92 NE5       30.05F
6HR MIN TEMP:  47; 6HR MAX TEMP:  52;

DOUGLAS        CLEAR     49  48  97 VRB3      30.03F
6HR MIN TEMP:  45; 6HR MAX TEMP:  52;

SAFFORD        CLEAR     47  44  90 CALM      29.99F
6HR MIN TEMP:  45; 6HR MAX TEMP:  52;

$$

AZZ532-181300-
SOUTHWEST ARIZONA

CITY           SKY/WX    TMP DP  RH WIND       PRES   REMARKS
YUMA           CLEAR     50  28  42 NE3       29.93F
6HR MIN TEMP:  49; 6HR MAX TEMP:  56;

$$

CAZ041-043-047-048-061-525>527-560>570-181300-
SOUTHERN CALIFORNIA

CITY           SKY/WX    TMP DP  RH WIND       PRES   REMARKS
DOWNTOWN L.A.  CLEAR     52  44  74 CALM      29.99F
6HR MIN TEMP:  51; 6HR MAX TEMP:  57;

L.A. AIRPORT   PTCLDY    54  53  97 CALM      30.00S
6HR MIN TEMP:  53; 6HR MAX TEMP:  60;

SAN DIEGO      PTCLDY    54  32  43 CALM      30.01F
6HR MIN TEMP:  54; 6HR MAX TEMP:  61;

BURBANK        CLEAR     49  34  56 CALM      29.98F
6HR MIN TEMP:  48; 6HR MAX TEMP:  58;

ONTARIO        CLEAR     50  34  54 CALM      29.99F
6HR MIN TEMP:  47; 6HR MAX TEMP:  57;

RIVERSIDE      CLEAR     48  35  60 NE5       30.00F
6HR MIN TEMP:  46; 6HR MAX TEMP:  58;

PALM SPRINGS   CLEAR     54  24  31 SW3       29.94F
6HR MIN TEMP:  49; 6HR MAX TEMP:  58;

EL CENTRO NAS  CLEAR     48  21  34 SE5       29.94F
6HR MIN TEMP:  45; 6HR MAX TEMP:  56;

IMPERIAL       CLEAR     50  28  42 CALM      29.92F
6HR MIN TEMP:  47; 6HR MAX TEMP:  56;

BLYTHE         CLEAR     45  22  40 CALM      29.93F
6HR MIN TEMP:  44; 6HR MAX TEMP:  58;

NEEDLES        CLEAR     53  25  33 W8        29.93F
6HR MIN TEMP:  52; 6HR MAX TEMP:  61;

$$

NVZ020-UTZ003-181300-
SOUTHERN NEVADA-UTAH

CITY           SKY/WX    TMP DP  RH WIND       PRES   REMARKS
LAS VEGAS      PTCLDY    46  22  38 W7        29.88F
6HR MIN TEMP:  45; 6HR MAX TEMP:  52;

SALT LAKE CITY CLOUDY    53  15  22 S25G36    29.62F
6HR MIN TEMP:  53; 6HR MAX TEMP:  56;

$$

NMZ009-TXZ055-181300-
NEW MEXICO-WEST TEXAS

CITY           SKY/WX    TMP DP  RH WIND       PRES   REMARKS
ALBUQUERQUE    MOCLDY    40  34  79 SE3       30.02F
6HR MIN TEMP:  38; 6HR MAX TEMP:  43;

EL PASO        CLOUDY    49  46  90 CALM      30.04S
6HR MIN TEMP:  49; 6HR MAX TEMP:  53;

$$


........................KEY........................
SKY/WX - SKY CONDITION/WEATHER
TMP    - TEMPERATURE IN FAHRENHEIT
DP     - DEW POINT IN FAHRENHEIT
RH     - RELATIVE HUMIDITY IN PERCENT
WIND   - DIRECTION AND SPEED IN MILES PER HOUR (MPH)
VRB    - VARIABLE WIND DIRECTION
PRES   - MEAN SEA LEVEL PRESSURE IN INCHES OF MERCURY
         F - FALLING PRESSURE   R - RISING PRESSURE
         S - STEADY PRESSURE
VSB    - VISIBILITY IN MILES
HX     - HEAT INDEX IN FAHRENHEIT
WCI    - WIND CHILL INDEX IN FAHRENHEIT
TC     - TEMPERATURE IN CELSIUS WHICH IS ALSO KNOWN AS
         TEMPERATURE IN CENTIGRADE
AFB    - AIR FORCE BASE
         LUKE AFB IS LUKE AIR FORCE BASE
         DAVIS-MONTHAN IS DAVIS-MONTHAN AIR FORCE BASE
NAS    - NAVAL AIR STATION
         EL CENTRO NAS IS EL CENTRO NAVAL AIR STATION
N/A    - NOT AVAILABLE





USA.gov is the U.S. government's official web portal to all federal, state and local government web resources and services.